Change the Weather History Date:

Monday, August 26, 2013

  Actual Average Record
Temperature  
Mean Temperature 83 °F -  
Max Temperature 91 °F 76 °F 91 °F (2013)
Min Temperature 75 °F 56 °F 50 °F (2010)
Cooling Degree Days 18    
Growing Degree Days 33 (Base 50)    
Moisture  
Dew Point 70 °F    
Average Humidity 65    
Maximum Humidity 78    
Minimum Humidity 49    
Precipitation  
Precipitation 0.00 in - - ()
Sea Level Pressure  
Sea Level Pressure 29.99 in    
Wind  
Wind Speed 13 mph (SSW)    
Max Wind Speed 17 mph    
Max Gust Speed 24 mph    
Visibility 10 miles    
Events      
Averages and records for this station are not official NWS values.
T = Trace of Precipitation, MM = Missing Value Source: NWS Daily Summary

Daily Weather History Graph

Daily Weather History Graph

Search for Another Location

Airport or City:

Trip Planner

Search our weather history database for the weather conditions in past years. The results will help you decide how hot, cold, wet, or windy it might be!

Date:

Astronomy

Aug. 26, 2013 Rise Set
Actual Time 6:37 AM CDT 8:05 PM CDT
Civil Twilight 6:07 AM CDT 8:35 PM CDT
Nautical Twilight 5:30 AM CDT 9:11 PM CDT
Astronomical Twilight 4:52 AM CDT 9:49 PM CDT
Moon 11:03 PM CDT (8/26) 12:52 PM CDT (8/26)
Length of Visible Light 14h 28m
Length of Day
13h 28m
Waning Gibbous, 66% of the Moon is Illuminated
Aug 26
Waning Gibbous
Aug 28
Last Quarter
Sep 5
New
Sep 12
First Quarter
Sep 19
Full

Hourly Weather History & Observations

Time (CDT) Temp. Heat Index Dew Point Humidity Pressure Visibility Wind Dir Wind Speed Gust Speed Precip Events Conditions
12:13 AM 78.8 °F - 71.6 °F 78% 30.05 in 10.0 mi SSW 10.4 mph 16.1 mph N/A   Clear
12:34 AM 78.8 °F - 71.6 °F 78% 30.05 in 10.0 mi SSW 11.5 mph 17.3 mph N/A   Clear
12:54 AM 78.8 °F - 71.6 °F 78% 30.05 in 10.0 mi SSW 12.7 mph 18.4 mph N/A   Clear
1:13 AM 78.8 °F - 71.6 °F 78% 30.04 in 10.0 mi SSW 13.8 mph 18.4 mph N/A   Clear
1:34 AM 78.8 °F - 71.6 °F 78% 30.04 in 10.0 mi SSW 13.8 mph - N/A   Clear
1:54 AM 78.8 °F - 69.8 °F 74% 30.04 in 10.0 mi SSW 12.7 mph 19.6 mph N/A   Clear
2:13 AM 78.8 °F - 69.8 °F 74% 30.03 in 10.0 mi SSW 13.8 mph - N/A   Clear
2:34 AM 78.8 °F - 69.8 °F 74% 30.03 in 10.0 mi SSW 15.0 mph 19.6 mph N/A   Clear
2:54 AM 78.8 °F - 69.8 °F 74% 30.03 in 10.0 mi SSW 13.8 mph 18.4 mph N/A   Clear
3:13 AM 78.8 °F - 69.8 °F 74% 30.03 in 10.0 mi SSW 15.0 mph - N/A   Clear
3:34 AM 78.8 °F - 69.8 °F 74% 30.03 in 10.0 mi SSW 16.1 mph - N/A   Clear
3:53 AM 78.8 °F - 69.8 °F 74% 30.03 in 10.0 mi SSW 13.8 mph - N/A   Clear
4:13 AM 78.8 °F - 69.8 °F 74% 30.03 in 10.0 mi SSW 11.5 mph 20.7 mph N/A   Clear
4:34 AM 77.0 °F - 68.0 °F 74% 30.03 in 10.0 mi SSW 12.7 mph - N/A   Clear
4:53 AM 77.0 °F - 68.0 °F 74% 30.03 in 10.0 mi SSW 10.4 mph 18.4 mph N/A   Clear
5:13 AM 77.0 °F - 68.0 °F 74% 30.03 in 10.0 mi SSW 11.5 mph 16.1 mph N/A   Clear
5:34 AM 77.0 °F - 68.0 °F 74% 30.03 in 10.0 mi SW 10.4 mph - N/A   Clear
5:53 AM 77.0 °F - 68.0 °F 74% 30.03 in 10.0 mi SW 10.4 mph 16.1 mph N/A   Clear
6:13 AM 77.0 °F - 68.0 °F 74% 30.03 in 10.0 mi SW 10.4 mph - N/A   Clear
6:34 AM 77.0 °F - 66.2 °F 69% 30.03 in 10.0 mi SW 11.5 mph - N/A   Clear
6:53 AM 77.0 °F - 66.2 °F 69% 30.04 in 10.0 mi SSW 12.7 mph - N/A   Clear
7:13 AM 75.2 °F - 66.2 °F 73% 30.04 in 10.0 mi SW 13.8 mph 18.4 mph N/A   Clear
7:34 AM 77.0 °F - 66.2 °F 69% 30.04 in 10.0 mi SSW 12.7 mph 19.6 mph N/A   Clear
7:53 AM 77.0 °F - 68.0 °F 74% 30.04 in 10.0 mi SSW 11.5 mph - N/A   Clear
8:13 AM 78.8 °F - 68.0 °F 69% 30.03 in 10.0 mi SSW 12.7 mph 17.3 mph N/A   Clear
8:34 AM 78.8 °F - 68.0 °F 69% 30.03 in 10.0 mi SSW 13.8 mph 20.7 mph N/A   Clear
8:53 AM 78.8 °F - 68.0 °F 69% 30.03 in 10.0 mi SSW 15.0 mph 20.7 mph N/A   Clear
9:13 AM 80.6 °F 83.2 °F 68.0 °F 65% 30.03 in 10.0 mi SSW 15.0 mph 20.7 mph N/A   Clear
9:34 AM 80.6 °F 83.2 °F 68.0 °F 65% 30.02 in 10.0 mi SSW 15.0 mph - N/A   Clear
9:53 AM 82.4 °F 85.4 °F 68.0 °F 62% 30.03 in 10.0 mi SSW 12.7 mph 18.4 mph N/A   Clear
10:13 AM 82.4 °F 85.4 °F 68.0 °F 62% 30.02 in 10.0 mi SW 13.8 mph 17.3 mph N/A   Clear
10:34 AM 82.4 °F 85.4 °F 68.0 °F 62% 30.03 in 10.0 mi SW 17.3 mph 24.2 mph N/A   Clear
10:53 AM 86.0 °F 89.4 °F 68.0 °F 55% 30.02 in 10.0 mi SW 16.1 mph 20.7 mph N/A   Clear
11:13 AM 86.0 °F 89.4 °F 68.0 °F 55% 30.02 in 10.0 mi SSW 15.0 mph 19.6 mph N/A   Clear
11:34 AM 86.0 °F 89.4 °F 68.0 °F 55% 30.01 in 10.0 mi SSW 16.1 mph - N/A   Clear
11:53 AM 87.8 °F 91.4 °F 68.0 °F 52% 30.01 in 10.0 mi SW 12.7 mph - N/A   Clear
12:14 PM 87.8 °F 92.6 °F 69.8 °F 55% 30.01 in 10.0 mi SSW 13.8 mph 17.3 mph N/A   Clear
12:33 PM 87.8 °F 92.6 °F 69.8 °F 55% 30.01 in 10.0 mi South 13.8 mph 17.3 mph N/A   Clear
12:54 PM 87.8 °F 92.6 °F 69.8 °F 55% 30.01 in 10.0 mi South 13.8 mph 19.6 mph N/A   Clear
1:14 PM 89.6 °F 93.4 °F 68.0 °F 49% 30.00 in 10.0 mi South 12.7 mph - N/A   Clear
1:33 PM 89.6 °F 94.7 °F 69.8 °F 52% 30.00 in 10.0 mi South 12.7 mph - N/A   Clear
1:53 PM 89.6 °F 94.7 °F 69.8 °F 52% 29.99 in 10.0 mi SSW 11.5 mph - N/A   Clear
2:13 PM 89.6 °F 94.7 °F 69.8 °F 52% 29.99 in 10.0 mi SSW 10.4 mph - N/A   Clear
2:33 PM 91.4 °F 96.8 °F 69.8 °F 49% 29.98 in 10.0 mi SSW 12.7 mph - N/A   Clear
2:54 PM 91.4 °F 96.8 °F 69.8 °F 49% 29.98 in 10.0 mi South 13.8 mph 18.4 mph N/A   Clear
3:13 PM 91.4 °F 98.4 °F 71.6 °F 52% 29.97 in 10.0 mi South 12.7 mph 18.4 mph N/A   Clear
3:33 PM 91.4 °F 96.8 °F 69.8 °F 49% 29.96 in 10.0 mi South 15.0 mph 19.6 mph N/A   Clear
3:54 PM 89.6 °F 96.2 °F 71.6 °F 55% 29.96 in 10.0 mi South 12.7 mph - N/A   Clear
4:13 PM 91.4 °F 98.4 °F 71.6 °F 52% 29.96 in 10.0 mi South 15.0 mph 19.6 mph N/A   Clear
4:33 PM 91.4 °F 98.4 °F 71.6 °F 52% 29.95 in 10.0 mi South 16.1 mph 21.9 mph N/A   Clear
4:54 PM 91.4 °F 98.4 °F 71.6 °F 52% 29.95 in 10.0 mi South 13.8 mph 21.9 mph N/A   Clear
5:13 PM 89.6 °F 96.2 °F 71.6 °F 55% 29.95 in 10.0 mi South 16.1 mph - N/A   Clear
5:33 PM 89.6 °F 96.2 °F 71.6 °F 55% 29.94 in 10.0 mi South 12.7 mph 20.7 mph N/A   Clear
5:54 PM 89.6 °F 96.2 °F 71.6 °F 55% 29.94 in 10.0 mi South 13.8 mph 21.9 mph N/A   Clear
6:13 PM 89.6 °F 96.2 °F 71.6 °F 55% 29.93 in 10.0 mi South 11.5 mph - N/A   Clear
6:33 PM 87.8 °F 93.8 °F 71.6 °F 58% 29.93 in 10.0 mi South 10.4 mph 17.3 mph N/A   Clear
6:54 PM 87.8 °F 93.8 °F 71.6 °F 58% 29.92 in 10.0 mi SSW 11.5 mph 18.4 mph N/A   Clear
7:13 PM 87.8 °F 93.8 °F 71.6 °F 58% 29.92 in 10.0 mi SSW 10.4 mph 17.3 mph N/A   Clear
7:33 PM 86.0 °F 91.8 °F 71.6 °F 62% 29.91 in 10.0 mi SSW 10.4 mph - N/A   Clear
7:54 PM 86.0 °F 91.8 °F 71.6 °F 62% 29.91 in 10.0 mi SSW 12.7 mph - N/A   Clear
8:14 PM 84.2 °F 89.6 °F 71.6 °F 66% 29.91 in 10.0 mi South 10.4 mph 18.4 mph N/A   Unknown
8:33 PM 82.4 °F 87.2 °F 71.6 °F 70% 29.91 in 10.0 mi SSW 9.2 mph - N/A   Clear
8:53 PM 82.4 °F 87.2 °F 71.6 °F 70% 29.91 in 10.0 mi SSW 9.2 mph - N/A   Clear
9:14 PM 82.4 °F 87.2 °F 71.6 °F 70% 29.92 in 10.0 mi South 9.2 mph - N/A   Clear
9:33 PM 80.6 °F 84.6 °F 71.6 °F 74% 29.92 in 10.0 mi South 8.1 mph - N/A   Clear
9:53 PM 80.6 °F 83.9 °F 69.8 °F 70% 29.91 in 10.0 mi South 6.9 mph - N/A   Clear
10:14 PM 78.8 °F - 71.6 °F 78% 29.91 in 10.0 mi South 6.9 mph - N/A   Clear
10:33 PM 78.8 °F - 71.6 °F 78% 29.92 in 10.0 mi South 8.1 mph - N/A   Clear
10:54 PM 78.8 °F - 71.6 °F 78% 29.91 in 10.0 mi SSW 10.4 mph - N/A   Clear
11:13 PM 78.8 °F - 71.6 °F 78% 29.91 in 10.0 mi SSW 9.2 mph - N/A   Clear
11:34 PM 80.6 °F 83.9 °F 69.8 °F 70% 29.91 in 10.0 mi SSW 13.8 mph - N/A   Clear
11:53 PM 80.6 °F 83.9 °F 69.8 °F 70% 29.91 in 10.0 mi SSW 12.7 mph 20.7 mph N/A   Clear